06h20 EDT


 

Suivi/Infos de l'aéroport


-ou-


 

Suivi des vols en temps réel9Y-TTC ✈ 08-05-2013 ✈ TTPP / POS - TTCP / TAB

Thumbnail
9Y-TTC / BWA1506
Unknown Owner · Trinidad & Tobago
Piarco Int'l ( – info)
Port-d'Espagne TT
Crown Point ( – info)
Scarborough, Tobago TT
Prévu: 08h10 AST
Prévu: 08h15 AST
Durée: 16 minutes
mercredi, 8 mai 2013
Statut Arrivé il y a plus d'un an. (journal de vol & graphique)
Avion Aerospatiale ATR-42-300 (bi-turbopropulseur) (AT43 – photos)
Vitesse Plan de vol: 532 kts (graphique)
Distance En ligne droite 83 km
Une partie au moins de ce vol se déroule hors de la zone de services primaire de FlightAware. Pour en savoir plus sur la couverture et la zone de services de FlightAware.
JOURNAL DE L'ACTIVITE
Vous voulez une recherche complète sur l'historique de 9Y-TTC depuis 1998? Achetez maintenant. Recevez-le dans l'heure.
Date Avion Provenance Destination Départ Arrivée Durée
27-07-2014 AT43Crown Point ()Piarco Int'l () 22h09 AST 22h22 AST 0:12
27-07-2014 AT43Piarco Int'l ()Crown Point () 21h10 AST 21h26 AST 0:15
27-07-2014 AT43Crown Point ()Piarco Int'l () 19h53 AST 20h07 AST 0:13
27-07-2014 AT43Piarco Int'l ()Crown Point () 18h50 AST 19h09 AST 0:19
27-07-2014 AT43Crown Point ()Piarco Int'l () 17h45 AST 18h05 AST 0:20
27-07-2014 AT43Piarco Int'l ()Crown Point () 16h56 AST 17h11 AST 0:14
27-07-2014 AT43Crown Point ()Piarco Int'l () 13h45 AST 14h04 AST 0:19
27-07-2014 AT43Piarco Int'l ()Crown Point () 12h49 AST 13h04 AST 0:15
27-07-2014 AT43Crown Point ()Piarco Int'l () 11h44 AST 12h02 AST 0:18
27-07-2014 AT43Piarco Int'l ()Crown Point () 10h43 AST 10h58 AST 0:15
27-07-2014 AT43Crown Point ()Piarco Int'l () 09h30 AST 09h47 AST 0:17
27-07-2014 AT43Piarco Int'l ()Crown Point () 08h38 AST 08h52 AST 0:13
27-07-2014 AT43Crown Point ()Piarco Int'l () 07h22 AST 07h40 AST 0:18
27-07-2014 AT43Piarco Int'l ()Crown Point () 06h25 AST 06h40 AST 0:15
26-07-2014 AT43Crown Point ()Piarco Int'l () 20h18 AST 20h36 AST 0:18
26-07-2014 AT43Piarco Int'l ()Crown Point () 19h32 AST 19h52 AST 0:20
26-07-2014 AT43Crown Point ()Piarco Int'l () 18h38 AST 18h55 AST 0:17
26-07-2014 AT43Piarco Int'l ()Crown Point () 17h50 AST 18h06 AST 0:15
26-07-2014 AT43Crown Point ()Piarco Int'l () 16h44 AST 17h02 AST 0:18
26-07-2014 AT43Piarco Int'l ()Crown Point () 16h00 AST 16h16 AST 0:15
26-07-2014 AT43Crown Point ()Piarco Int'l () 14h52 AST 15h14 AST 0:22
26-07-2014 AT43Piarco Int'l ()Crown Point () 14h01 AST 14h15 AST 0:13
26-07-2014 AT43Crown Point ()Piarco Int'l () 12h45 AST 13h08 AST 0:23
26-07-2014 AT43Piarco Int'l ()Crown Point () 11h56 AST 12h11 AST 0:15
26-07-2014 AT43Crown Point ()Piarco Int'l () 10h48 AST 11h10 AST 0:22
26-07-2014 AT43Piarco Int'l ()Crown Point () 09h55 AST 10h12 AST 0:16
26-07-2014 AT43Int'l Grantley-Adams ()Piarco Int'l () 07h52 AST 08h47 AST 0:55
26-07-2014 AT43Piarco Int'l ()Int'l Grantley-Adams () 06h22 AST 07h15 AST 0:53
25-07-2014 AT43Crown Point ()Piarco Int'l () 22h43 AST 23h02 AST 0:18
25-07-2014 AT43Piarco Int'l ()Crown Point () 21h46 AST 22h05 AST 0:18
25-07-2014 AT43Point Salines Int'l ()Piarco Int'l () 20h24 AST 20h44 AST 0:19
25-07-2014 AT43Piarco Int'l ()Point Salines Int'l () 19h15 AST 19h44 AST 0:28
25-07-2014 AT43Crown Point ()Piarco Int'l () 17h56 AST 18h16 AST 0:20
25-07-2014 AT43Piarco Int'l ()Crown Point () 17h08 AST 17h24 AST 0:15
25-07-2014 AT43Crown Point ()Piarco Int'l () 13h59 AST 14h20 AST 0:21
25-07-2014 AT43Piarco Int'l ()Crown Point () 13h02 AST 13h18 AST 0:15
25-07-2014 AT43Int'l Maiquetía ~ Simón Bolívar ()Piarco Int'l () 09h30 VET 11h35 AST 1:35
25-07-2014 AT43Piarco Int'l ()Int'l Maiquetía ~ Simón Bolívar () 07h13 AST 08h14 VET 1:30
24-07-2014 AT43Crown Point ()Piarco Int'l () 19h35 AST 19h56 AST 0:21
24-07-2014 AT43Piarco Int'l ()Crown Point () 18h43 AST 19h01 AST 0:17
24-07-2014 AT43Crown Point ()Piarco Int'l () 17h39 AST 17h59 AST 0:20
24-07-2014 AT43Piarco Int'l ()Crown Point () 16h44 AST 17h00 AST 0:15
24-07-2014 AT43Crown Point ()Piarco Int'l () 15h33 AST 15h53 AST 0:20
24-07-2014 AT43Piarco Int'l ()Crown Point () 14h39 AST 14h53 AST 0:13
24-07-2014 AT43Crown Point ()Piarco Int'l () 13h22 AST 13h40 AST 0:18
24-07-2014 AT43Piarco Int'l ()Crown Point () 12h27 AST 12h43 AST 0:16
24-07-2014 AT43Crown Point ()Piarco Int'l () 11h18 AST 11h37 AST 0:19
24-07-2014 AT43Piarco Int'l ()Crown Point () 10h19 AST 10h35 AST 0:16
24-07-2014 AT43Crown Point ()Piarco Int'l () 09h10 AST 09h28 AST 0:18
24-07-2014 AT43Piarco Int'l ()Crown Point () 08h16 AST 08h31 AST 0:15
24-07-2014 AT43Crown Point ()Piarco Int'l () 07h15 AST 07h37 AST 0:22
24-07-2014 AT43Piarco Int'l ()Crown Point () 06h24 AST 06h40 AST 0:15
24-07-2014 AT43Crown Point ()Piarco Int'l () 01h29 AST 01h47 AST 0:18
24-07-2014 AT43Piarco Int'l ()Crown Point () 00h33 AST 00h48 AST 0:14
23-07-2014 AT43Crown Point ()Piarco Int'l () 23h31 AST 23h49 AST 0:18
23-07-2014 AT43Piarco Int'l ()Crown Point () 22h44 AST 23h00 AST 0:15
23-07-2014 AT43Crown Point ()Piarco Int'l () 21h44 AST 22h02 AST 0:18
23-07-2014 AT43Piarco Int'l ()Crown Point () 20h55 AST 21h12 AST 0:17
22-07-2014 AT43Int'l Grantley-Adams ()Piarco Int'l () 21h11 AST 22h01 AST 0:50
22-07-2014 AT43Piarco Int'l ()Int'l Grantley-Adams () 19h42 AST 20h33 AST 0:51
22-07-2014 AT43George F. L. Charles ()Piarco Int'l () 15h22 AST 16h22 AST 1:00
22-07-2014 AT43Piarco Int'l ()George F. L. Charles () 13h47 AST 14h47 AST 0:59
22-07-2014 AT43Int'l Maiquetía ~ Simón Bolívar ()Piarco Int'l () 09h52 VET 11h56 AST 1:34
22-07-2014 AT43Piarco Int'l ()Int'l Maiquetía ~ Simón Bolívar () 07h56 AST 08h53 VET 1:27
22-07-2014 AT43Crown Point ()Piarco Int'l () 06h33 AST 06h50 AST 0:17
22-07-2014 AT43Piarco Int'l ()Crown Point () 05h49 AST 06h03 AST 0:13
21-07-2014 AT43Crown Point ()Piarco Int'l () 23h26 AST 23h47 AST 0:21
21-07-2014 AT43Piarco Int'l ()Crown Point () 22h36 AST 22h51 AST 0:14
21-07-2014 AT43Crown Point ()Piarco Int'l () 19h33 AST 19h49 AST 0:16
21-07-2014 AT43Piarco Int'l ()Crown Point () 18h28 AST 18h43 AST 0:15
21-07-2014 AT43Crown Point ()Piarco Int'l () 17h19 AST 17h38 AST 0:19
21-07-2014 AT43Piarco Int'l ()Crown Point () 16h23 AST 16h39 AST 0:15
21-07-2014 AT43Crown Point ()Piarco Int'l () 15h20 AST 15h36 AST 0:16
21-07-2014 AT43Piarco Int'l ()Crown Point () 14h24 AST 14h41 AST 0:17
21-07-2014 AT43Crown Point ()Piarco Int'l () 12h59 AST 13h20 AST 0:21
21-07-2014 AT43Piarco Int'l ()Crown Point () 11h57 AST 12h13 AST 0:16
21-07-2014 AT43Crown Point ()Piarco Int'l () 10h41 AST 11h00 AST 0:19
21-07-2014 AT43Piarco Int'l ()Crown Point () 09h54 AST 10h09 AST 0:14
21-07-2014 AT43Crown Point ()Piarco Int'l () 08h34 AST 08h55 AST 0:21
21-07-2014 AT43Piarco Int'l ()Crown Point () 07h46 AST 08h02 AST 0:16
21-07-2014 AT43Crown Point ()Piarco Int'l () 06h45 AST 07h09 AST 0:24
21-07-2014 AT43Piarco Int'l ()Crown Point () 05h50 AST 06h09 AST 0:19
20-07-2014 AT43Crown Point ()Piarco Int'l () 21h49 AST 22h20 AST 0:31
20-07-2014 AT43Piarco Int'l ()Crown Point () 20h39 AST 21h20 AST (?) 0:41
20-07-2014 AT43Crown Point ()Piarco Int'l () 19h26 AST 20h29 AST (?) 1:02
20-07-2014 AT43Piarco Int'l ()Crown Point () 18h34 AST 18h49 AST (+1) Inconnu
20-07-2014 AT43Crown Point ()Piarco Int'l () 17h44 AST 17h56 AST 0:11
20-07-2014 AT43Piarco Int'l ()Crown Point () 16h46 AST 17h02 AST 0:16
20-07-2014 AT43Crown Point ()Piarco Int'l () 14h01 AST 14h18 AST 0:17
20-07-2014 AT43Piarco Int'l ()Crown Point () 13h10 AST 13h26 AST 0:16
20-07-2014 AT43Int'l Maiquetía ~ Simón Bolívar ()Piarco Int'l () 09h33 VET 11h38 AST 1:35
20-07-2014 AT43Piarco Int'l ()Int'l Maiquetía ~ Simón Bolívar () 07h04 AST 07h57 VET 1:22
19-07-2014 AT43Crown Point ()Piarco Int'l () 20h16 AST 20h30 AST 0:13
19-07-2014 AT43Piarco Int'l ()Crown Point () 19h20 AST 19h39 AST 0:18
19-07-2014 AT43Crown Point ()Piarco Int'l () 18h06 AST 18h27 AST 0:21
19-07-2014 AT43Piarco Int'l ()Crown Point () 17h13 AST 17h32 AST 0:18
19-07-2014 AT43Crown Point ()Piarco Int'l () 16h11 AST 16h31 AST 0:20
19-07-2014 AT43Piarco Int'l ()Crown Point () 14h59 AST 15h20 AST 0:21
19-07-2014 AT43Crown Point ()Piarco Int'l () 13h18 AST 13h42 AST 0:24
Les membres inscrits (l'inscription est gratuite et facile!) voient 4 months d'historique. S'inscrire